S55G-5 Weather Reports


Display with metric or nautical units.
time (UTC)temp
F
wind
direction
speed
MPH
gust
MPH
rain 1hr
in
rain 24hr
in
rain mn
in
humidity
%
barometer
mb
20260502213603 51 360 0.0 2.0 0.00 0.00 0.00 82 1022.2
20260502212917 51 360 0.0 2.0 0.00 0.00 0.00 80 1022.1
20260502211803 51 360 0.0 2.0 0.00 0.00 0.00 80 1021.8
20260502210903 52 346 1.0 2.0 0.00 0.00 0.00 79 1021.8
20260502210217 52 355 0.0 2.0 0.00 0.00 0.00 79 1021.8
20260502205403 52 48 1.0 2.0 0.00 0.00 0.00 78 1022.0
20260502204503 53 0 0.0 0.0 0.00 0.00 0.00 76 1022.0
20260502203603 54 67 0.0 2.0 0.00 0.00 0.00 75 1022.1
20260502202703 53 67 1.0 2.0 0.00 0.00 0.00 75 1021.9
20260502201803 53 7 2.0 2.0 0.00 0.00 0.00 74 1022.0
20260502200903 55 292 0.0 2.0 0.00 0.00 0.00 71 1022.2
20260502200003 55 303 0.0 2.0 0.00 0.00 0.00 72 1021.9
20260502195403 55 346 1.0 2.0 0.00 0.00 0.00 72 1022.1
20260502194503 55 360 0.0 2.0 0.00 0.00 0.00 71 1022.1
20260502193603 56 360 0.0 2.0 0.00 0.00 0.00 69 1022.0
20260502192703 57 45 0.0 2.0 0.00 0.00 0.00 68 1022.1
20260502191803 57 30 1.0 2.0 0.00 0.00 0.00 68 1021.9
20260502190903 58 352 0.0 2.0 0.00 0.00 0.00 69 1021.9
20260502190218 59 360 0.0 2.0 0.00 0.00 0.00 62 1021.9
20260502185403 59 20 0.0 2.0 0.00 0.00 0.00 62 1021.8
20260502184717 58 330 1.0 2.0 0.00 0.00 0.00 68 1021.7
20260502183603 61 293 1.0 2.0 0.00 0.00 0.00 59 1021.7
20260502182703 62 341 1.0 2.0 0.00 0.00 0.00 56 1021.5
20260502181803 63 334 1.0 2.0 0.00 0.00 0.00 56 1021.8
20260502180903 64 353 1.0 2.0 0.00 0.00 0.00 58 1021.3
20260502163603 72 269 4.0 6.0 0.00 0.00 0.00 40 1021.5
20260502162703 74 265 2.0 4.0 0.00 0.00 0.00 39 1021.6
20260502161803 74 267 2.0 4.0 0.00 0.00 0.00 39 1021.7
20260502160903 74 271 2.0 7.0 0.00 0.00 0.00 40 1021.8
20260502151803 76 248 3.0 9.0 0.00 0.00 0.00 37 1021.9
20260502150903 76 252 4.0 9.0 0.00 0.00 0.00 39 1022.0
20260502123603 76 272 2.0 11.0 0.00 0.00 0.00 34 1023.2
20260502122703 77 265 3.0 11.0 0.00 0.00 0.00 35 1023.4
20260502121803 76 269 2.0 13.0 0.00 0.00 0.00 35 1023.4
20260502121118 76 266 4.0 14.0 0.00 0.00 0.00 35 1023.5
20260502115403 77 265 3.0 14.0 0.00 0.00 0.00 35 1023.7
20260502114503 75 284 5.0 14.0 0.00 0.00 0.00 34 1023.7
20260502113603 76 262 4.0 11.0 0.00 0.00 0.00 33 1023.8
20260502112703 76 272 4.0 11.0 0.00 0.00 0.00 35 1023.9
20260502111803 76 265 3.0 8.0 0.00 0.00 0.00 33 1024.1
20260502111118 75 274 5.0 8.0 0.00 0.00 0.00 34 1024.2
20260502110217 76 262 2.0 13.0 0.00 0.00 0.00 35 1024.3
20260502105619 75 273 4.0 13.0 0.00 0.00 0.00 35 1024.2
20260502104718 76 256 3.0 7.0 0.00 0.00 0.00 35 1024.3
20260502103603 75 272 3.0 8.0 0.00 0.00 0.00 34 1024.7
20260502102703 75 262 3.0 11.0 0.00 0.00 0.00 35 1024.6
20260502100903 74 281 3.0 11.0 0.00 0.00 0.00 36 1024.9
20260502090903 73 256 4.0 4.0 0.00 0.00 0.00 35 1025.3
20260502070903 62 91 1.0 2.0 0.00 0.00 0.00 58 1026.2
20260502070003 62 93 0.0 2.0 0.00 0.00 0.00 59 1026.5
20260502065617 61 100 1.0 2.0 0.00 0.00 0.00 58 1026.3
20260502064503 60 96 2.0 2.0 0.00 0.00 0.00 60 1026.4
20260502063603 58 100 1.0 2.0 0.00 0.00 0.00 63 1026.5
20260502062703 56 129 1.0 2.0 0.00 0.00 0.00 67 1026.5
20260502061803 54 135 2.0 2.0 0.00 0.00 0.00 70 1026.6
20260502061118 55 115 1.0 2.0 0.00 0.00 0.00 68 1026.6
20260502060004 53 93 1.0 2.0 0.00 0.00 0.00 73 1026.8
20260502055403 53 83 1.0 2.0 0.00 0.00 0.00 72 1026.4
20260502054503 51 133 1.0 2.0 0.00 0.00 0.00 74 1026.5
20260502053603 50 157 0.0 2.0 0.00 0.00 0.00 77 1026.7
20260502052703 50 0 0.0 0.0 0.00 0.00 0.00 79 1026.6
20260502051803 48 135 0.0 2.0 0.00 0.00 0.00 81 1026.7
20260502050903 46 135 0.0 2.0 0.00 0.00 0.00 82 1026.8
20260502050003 46 121 0.0 2.0 0.00 0.00 0.00 84 1026.6
20260502045403 45 99 0.0 2.0 0.00 0.00 0.00 86 1026.7
20260502044718 44 35 0.0 2.0 0.00 0.00 0.00 88 1026.7
20260502043603 42 0 0.0 0.0 0.00 0.00 0.00 91 1026.6
20260502042703 41 45 0.0 2.0 0.00 0.00 0.00 91 1026.7
20260502042018 41 56 0.0 2.0 0.00 0.00 0.00 91 1026.7
20260502040903 41 58 0.0 2.0 0.00 0.00 0.00 90 1026.6
20260502040003 42 280 1.0 2.0 0.00 0.00 0.00 89 1026.7
20260502035403 43 286 0.0 2.0 0.00 0.00 0.00 88 1026.5
20260502034717 43 295 0.0 2.0 0.00 0.00 0.00 89 1026.8
20260502033603 42 347 1.0 2.0 0.00 0.00 0.00 89 1026.5
20260502032703 42 87 1.0 2.0 0.00 0.00 0.00 89 1026.5
20260502031803 42 0 0.0 0.0 0.00 0.00 0.00 90 1026.5
20260502030904 42 90 0.0 2.0 0.00 0.00 0.00 90 1026.5
20260502030003 42 90 0.0 2.0 0.00 0.00 0.00 90 1026.6
20260502025403 42 90 0.0 2.0 0.00 0.00 0.00 90 1026.8
20260502024503 42 0 0.0 0.0 0.00 0.00 0.00 90 1026.8
20260502023603 43 0 0.0 0.0 0.00 0.00 0.00 90 1027.0
20260502022703 42 90 0.0 2.0 0.00 0.00 0.00 90 1026.7
20260502021803 42 90 0.0 2.0 0.00 0.00 0.00 89 1026.8
20260502020903 42 60 0.0 2.0 0.00 0.00 0.00 89 1026.7
20260502020003 43 44 1.0 2.0 0.00 0.00 0.00 88 1026.6
20260502015403 43 344 2.0 2.0 0.00 0.00 0.00 87 1026.6
20260502014503 43 297 1.0 4.0 0.00 0.00 0.00 88 1026.6
20260502013603 43 28 1.0 2.0 0.00 0.00 0.00 88 1026.6
20260502012703 43 67 0.0 2.0 0.00 0.00 0.00 87 1026.8
20260502012018 43 67 0.0 2.0 0.00 0.00 0.00 87 1026.8
20260502011118 43 67 0.0 2.0 0.00 0.00 0.00 89 1026.9
20260502010003 43 53 1.0 2.0 0.00 0.00 0.00 89 1027.0
20260502005403 43 42 0.0 2.0 0.00 0.00 0.00 88 1027.1
20260502004718 43 12 0.0 2.0 0.00 0.00 0.00 87 1027.0
20260502003603 44 315 0.0 2.0 0.00 0.00 0.00 85 1027.0
20260502002703 44 309 0.0 2.0 0.00 0.00 0.00 85 1027.3
20260502002018 45 322 0.0 2.0 0.00 0.00 0.00 84 1027.2
20260502000903 46 22 0.0 2.0 0.00 0.00 0.00 83 1027.1
20260502000004 46 317 0.0 2.0 0.00 0.00 0.00 83 1027.3
20260501235403 46 56 1.0 2.0 0.00 0.00 0.00 82 1027.4
20260501234718 46 57 1.0 2.0 0.00 0.00 0.00 82 1027.0
20260501233603 45 51 2.0 2.0 0.00 0.00 0.00 82 1027.2
20260501232703 46 337 0.0 2.0 0.00 0.00 0.00 80 1027.3
20260501231803 46 0 0.0 0.0 0.00 0.00 0.00 79 1027.3
20260501230903 47 292 0.0 2.0 0.00 0.00 0.00 79 1027.0
20260501230003 47 292 0.0 2.0 0.00 0.00 0.00 79 1027.1
20260501225403 47 292 2.0 2.0 0.00 0.00 0.00 79 1027.2
20260501224503 47 292 1.0 2.0 0.00 0.00 0.00 80 1027.1
20260501223603 47 0 0.0 0.0 0.00 0.00 0.00 80 1027.1
20260501222703 47 324 0.0 2.0 0.00 0.00 0.00 79 1027.1
20260501221803 48 63 1.0 2.0 0.00 0.00 0.00 76 1027.1
20260501220903 48 47 0.0 2.0 0.00 0.00 0.00 75 1027.1
20260501220003 48 67 1.0 2.0 0.00 0.00 0.00 75 1027.1
20260501215403 49 71 1.0 2.0 0.00 0.00 0.00 73 1027.0
20260501214504 49 64 1.0 2.0 0.00 0.00 0.00 74 1027.0